Skip Page Navigation
NASA JPL Caltech
NASA Logo - Jet Propulsion Laboratory + View the NASA Portal
+ Center for Near-Earth Object Studies
JPL Home Earth Solar System Stars & Galaxies Technology
JPL Solar System Dynamics
BODIES ORBITS EPHEMERIDES TOOLS PHYSICAL DATA DISCOVERY FAQ SITE MAP
JPL Small-Body Database Browser
Search: [ help ]  
351425 (2005 GT65)
Classification: Main-belt Asteroid          SPK-ID: 2351425
Ephemeris | Orbit Diagram | Orbital Elements | Mission Design | Physical Parameters | Discovery Circumstances | Close-Approach Data ]

[ show orbit diagram ]
Orbital Elements at Epoch 2459000.5 (2020-May-31.0) TDB
Reference: JPL 16 (heliocentric ecliptic J2000)
 Element Value Uncertainty (1-sigma)   Units 
e .2421023510787265 6.527e-08  
a 2.705947836018666 3.6737e-08 au
q 2.050831503022155 1.619e-07 au
i 11.51089449517224 6.5988e-06 deg
node 108.8285548046724 3.4634e-05 deg
peri 161.7589468055828 4.1954e-05 deg
M 89.69901318164807 1.7105e-05 deg
tp 2458595.399553709842
(2019-Apr-21.89955371)
7.8182e-05 TDB
period 1625.839075499372
4.45
3.311e-05
9.065e-08
d
yr
n .221424128270153 4.5093e-09 deg/d
Q 3.361064169015178 4.5632e-08 au
  Orbit Determination Parameters
   # obs. used (total)      218  
   data-arc span      5264 days (14.41 yr)  
   first obs. used      2005-03-10  
   last obs. used      2019-08-08  
   planetary ephem.      DE431  
   SB-pert. ephem.      SB431-N16  
   condition code      0  
   norm. resid. RMS      .54562  
   source      ORB  
   producer      Otto Matic  
   solution date      2019-Sep-24 06:37:12  

Additional Information
 Earth MOID = 1.03782 au 
 Jupiter MOID = 1.78964 au 
 T_jup = 3.294 
[ show covariance matrix ]

Ephemeris | Orbit Diagram | Orbital Elements | Mission Design | Physical Parameters | Discovery Circumstances | Close-Approach Data ]

Physical Parameter Table
Parameter Symbol Value Units Sigma Reference Notes
absolute magnitude H 16.2   n/a MPO434218  

351425 (2005 GT65)          Discovered 2005-Apr-02 by CSS at Catalina
Reference: 20130127/Numbers.arcLast Updated: 2013-01-31

[ show close-approach data ]
Ephemeris | Orbit Diagram | Orbital Elements | Mission Design | Physical Parameters | Discovery Circumstances | Close-Approach Data ]
ABOUT SSD CREDITS/AWARDS PRIVACY/COPYRIGHT GLOSSARY LINKS
FirstGov 2020-Jul-04 04:50 UT
(server date/time)  
NASA Home Page
Site Manager:   Ryan S. Park
Webmaster  Alan B. Chamberlin